Location: Kellogg
(38.0159°N, 90.0546°W)
Time: 23:11:24
(UTC+00:00)

Courier 1B Rocket - Pass Details

Date: 21 September 2024
Orbit: 920 x 1201 km, 28.3° (Epoch: 14 October)

Event Time Altitude Azimuth Distance (km) Brightness Sun altitude
Rises 01:40:52 0° 254° (WSW) 3,801 9.0 -20.5°
Reaches altitude 10° 01:47:06 10° 214° (SSW) 2,938 7.7 -21.7°
Maximum altitude 01:47:47 10° 208° (SSW) 2,937 7.6 -21.8°
Drops below altitude 10° 01:48:28 10° 202° (SSW) 2,957 7.5 -21.9°
Enters shadow 01:52:35 - 174° (S) 3,472 7.6 -22.7°
